Location: Olomouc
(49.5830°N, 17.2500°E)
Time: 08:32:53
(UTC+02:00)

Envisat - Pass Details

Date: 30 July 2021
Orbit: 764 x 766 km, 98.2° (Epoch: 25 September)

Event Time Altitude Azimuth Distance (km) Brightness Sun altitude
Rises 04:37:15 0° 31° (NNE) 3,245 7.8 -6.4°
Reaches altitude 10° 04:41:12 10° 62° (ENE) 2,311 7.2 -5.9°
Maximum altitude 04:43:09 12° 85° (E) 2,163 6.4 -5.7°
Drops below altitude 10° 04:45:07 10° 108° (ESE) 2,304 6.0 -5.4°
Sets 04:49:00 0° 138° (SE) 3,222 6.3 -4.9°
